This demonstration page uses our WeatherBlox Daily Observations layout. Learn more.

Left ArrowRight Arrow

40.92501, -98.34201

Hourly Observations for August 28, 2020

Temp ( °F °C ) Dew Point ( °F °C ) Humidity (%) Winds ( mph kmh ) Pressure ( in mb ) Visibility ( mi km ) Precip ( " mm )
12:53 am 00:53 Clear 75 23.9 67 19.4 76 76 S 12 19 29.73 1007 10 16 0.00 0.00
1:53 am 01:53 Clear 75 23.9 65 18.3 71 71 S 9 15 29.73 1007 10 16 0.00 0.00
2:53 am 02:53 Clear 75 23.9 65 18.3 71 71 S 10 17 29.73 1007 10 16 0.00 0.00
3:53 am 03:53 Clear 74 23.3 65 18.3 74 74 S 10 17 29.73 1007 10 16 0.00 0.00
4:53 am 04:53 Clear 72 22.2 64 17.8 76 76 S 6 9 29.75 1007 10 16 0.00 0.00
5:53 am 05:53 Clear 70 21.1 64 17.8 82 82 NE 3 6 29.77 1008 10 16 0.00 0.00
6:53 am 06:53 Clear 68 20 64 17.8 87 87 ENE 5 7 29.81 1010 9 14 0.00 0.00
7:53 am 07:53 Sunny 70 21.1 65 18.3 84 84 ESE 3 6 29.82 1010 8 13 0.00 0.00
8:53 am 08:53 Sunny 75 23.9 66 18.9 74 74 VRB 3 6 29.82 1010 10 16 0.00 0.00
9:53 am 09:53 Sunny 79 26.1 66 18.9 65 65 Calm 29.81 1010 10 16 0.00 0.00
10:53 am 10:53 Sunny 83 28.3 66 18.9 57 57 ESE 6 9 29.80 1009 10 16 0.00 0.00
11:53 am 11:53 Sunny 87 30.6 66 18.9 50 50 N 7 11 29.82 1010 10 16 0.00 0.00
12:53 pm 12:53 Sunny 89 31.7 65 18.3 45 45 VRB 7 11 29.81 1009 10 16 0.00 0.00
1:53 pm 13:53 Sunny 91 32.8 66 18.9 44 44 NNE 8 13 29.79 1009 10 16 0.00 0.00
2:28 pm 14:28 Sunny 93 33.9 66 18.9 41 41 NNE 10 17 29.70 1006 10 16 0.00 0.00
2:53 pm 14:53 Sunny 90 32.2 67 19.4 47 47 NNE 17 28 29.80 1009 10 16 0.00 0.00
3:53 pm 15:53 Partly Cloudy 91 32.8 66 18.9 44 44 N 17 28 29.82 1010 10 16 0.00 0.00
4:53 pm 16:53 Sunny 89 31.7 62 16.7 41 41 NNE 18 30 29.83 1010 10 16 0.00 0.00
5:53 pm 17:53 Partly Cloudy 87 30.6 61 16.1 42 42 NNE 13 20 29.85 1011 10 16 0.00 0.00
6:53 pm 18:53 Sunny 85 29.4 62 16.7 46 46 NNE 13 20 29.87 1012 10 16 0.00 0.00
7:53 pm 19:53 Partly Cloudy 80 26.7 62 16.7 54 54 N 10 17 29.91 1013 10 16 0.00 0.00
8:53 pm 20:53 Mostly Cloudy 76 24.4 63 17.2 64 64 N 9 15 29.93 1014 10 16 0.00 0.00
9:53 pm 21:53 Clear 74 23.3 63 17.2 69 69 N 9 15 29.96 1014 10 16 0.00 0.00
10:53 pm 22:53 Clear 71 21.7 61 16.1 71 71 N 8 13 29.96 1015 10 16 0.00 0.00
11:53 pm 23:53 Clear 69 20.6 61 16.1 76 76 NNW 5 7 29.97 1015 10 16 0.00 0.00

Powered by AerisWeather